QPF
0.09 0.10 0.08 0.05 0.04 0.01 0.02 0.05 0.05 0.03 0.02 0.02 0.02 0.00 0.00 0.00 0.02 0.03 0.03 0.02 0.02 0.05 0.08 0.06 0.07 0.09 0.10 0.17 0.21 0.18 0.14 0.06 0.10 0.20 0.23 0.09 0.06 0.11 0.04 0.02 0.02 0.01 0.00
0.04 0.05 0.06 0.07 0.10 0.12 0.17 0.17 0.17 0.13 0.09 0.06 0.03 0.01 0.01 0.02 0.02 0.04 0.04 0.03 0.03 0.03 0.03 0.02 0.02 0.03 0.10 0.13 0.15 0.19 0.15 0.09 0.09 0.12 0.20 0.09 0.09 0.12 0.08 0.08 0.12 0.08 0.03
0.07 0.06 0.07 0.10 0.14 0.21 0.21 0.19 0.16 0.13 0.11 0.08 0.05 0.03 0.03 0.02 0.02 0.02 0.02 0.02 0.02 0.02 0.01 0.01 0.02 0.04 0.10 0.15 0.19 0.20 0.17 0.16 0.15 0.15 0.14 0.08 0.07 0.09 0.08 0.12 0.14 0.11 0.07
0.12 0.12 0.12 0.12 0.13 0.16 0.18 0.17 0.15 0.13 0.13 0.11 0.11 0.06 0.03 0.02 0.02 0.01 0.01 0.00 0.00 0.00 0.01 0.02 0.05 0.09 0.16 0.17 0.17 0.15 0.11 0.08 0.12 0.12 0.09 0.09 0.11 0.14 0.08 0.07 0.06 0.07 0.08
0.21 0.21 0.17 0.13 0.11 0.12 0.13 0.15 0.15 0.14 0.13 0.12 0.09 0.04 0.02 0.01 0.01 0.00 0.00 0.00 0.00 0.00 0.00 0.01 0.04 0.09 0.14 0.13 0.11 0.08 0.07 0.05 0.07 0.13 0.16 0.14 0.12 0.16 0.20 0.16 0.12 0.11 0.11
0.33 0.31 0.25 0.18 0.13 0.10 0.08 0.06 0.06 0.05 0.05 0.04 0.03 0.01 0.01 0.00 0.00 0.00 0.00 0.00 0.00 0.00 0.01 0.02 0.04 0.11 0.17 0.15 0.12 0.08 0.06 0.09 0.13 0.14 0.12 0.11 0.11 0.11 0.14 0.12 0.08 0.06 0.03
0.27 0.28 0.26 0.22 0.17 0.12 0.08 0.05 0.04 0.04 0.03 0.02 0.01 0.01 0.00 0.00 0.00 0.00 0.00 0.00 0.00 0.00 0.01 0.01 0.03 0.10 0.16 0.13 0.09 0.08 0.13 0.15 0.15 0.13 0.11 0.12 0.11 0.09 0.12 0.13 0.15 0.12 0.05
0.24 0.28 0.29 0.26 0.20 0.12 0.07 0.05 0.06 0.05 0.03 0.02 0.01 0.01 0.00 0.00 0.00 0.00 0.00 0.00 0.01 0.01 0.01 0.01 0.02 0.03 0.05 0.05 0.05 0.04 0.08 0.10 0.09 0.09 0.11 0.17 0.19 0.20 0.25 0.25 0.27 0.23 0.13
0.31 0.27 0.25 0.23 0.20 0.14 0.10 0.08 0.09 0.06 0.03 0.02 0.01 0.01 0.00 0.00 0.00 0.00 0.00 0.01 0.01 0.04 0.05 0.04 0.04 0.03 0.04 0.07 0.11 0.14 0.16 0.17 0.14 0.14 0.15 0.17 0.15 0.14 0.16 0.19 0.23 0.26 0.19
0.17 0.14 0.12 0.11 0.10 0.12 0.14 0.15 0.13 0.09 0.05 0.02 0.00 0.01 0.01 0.00 0.00 0.00 0.00 0.01 0.01 0.03 0.05 0.07 0.04 0.03 0.03 0.05 0.14 0.27 0.36 0.34 0.26 0.22 0.23 0.23 0.19 0.17 0.17 0.14 0.16 0.22 0.18
0.09 0.12 0.12 0.11 0.10 0.10 0.11 0.13 0.10 0.07 0.06 0.03 0.01 0.01 0.00 0.00 0.00 0.00 0.00 0.00 0.01 0.01 0.02 0.03 0.03 0.02 0.02 0.02 0.03 0.09 0.19 0.20 0.15 0.16 0.20 0.20 0.16 0.14 0.11 0.10 0.14 0.16 0.11
0.13 0.14 0.10 0.09 0.07 0.04 0.03 0.02 0.02 0.01 0.01 0.01 0.01 0.01 0.01 0.00 0.00 0.00 0.00 0.00 0.00 0.00 0.00 0.00 0.00 0.00 0.00 0.00 0.00 0.01 0.03 0.05 0.04 0.03 0.04 0.04 0.04 0.04 0.04 0.05 0.06 0.05 0.06
0.08 0.05 0.04 0.04 0.03 0.02 0.01 0.00 0.00 0.00 0.00 0.00 0.02 0.02 0.00 0.00 0.00 0.00 0.00 0.00 0.00 0.00 0.00 0.00 0.00 0.00 0.00 0.00 0.00 0.00 0.00 0.00 0.00 0.00 0.00 0.00 0.00 0.00 0.00 0.01 0.01 0.01 0.03
0.05 0.02 0.01 0.01 0.01 0.00 0.00 0.00 0.00 0.00 0.00 0.00 0.01 0.02 0.00 0.00 0.00 0.00 0.00 0.00 0.00 0.00 0.00 0.00 0.00 0.00 0.00 0.01 0.01 0.01 0.01 0.01 0.01 0.01 0.00 0.00 0.00 0.00 0.00 0.00 0.00 0.01 0.03
0.05 0.02 0.01 0.00 0.00 0.00 0.00 0.00 0.00 0.00 0.00 0.01 0.01 0.02 0.02 0.00 0.00 0.00 0.00 0.00 0.00 0.00 0.00 0.00 0.00 0.00 0.00 0.00 0.00 0.00 0.01 0.01 0.01 0.01 0.00 0.00 0.00 0.00 0.00 0.00 0.00 0.00 0.01
0.02 0.01 0.01 0.00 0.00 0.00 0.00 0.00 0.01 0.01 0.01 0.01 0.02 0.02 0.02 0.01 0.01 0.00 0.00 0.00 0.00 0.00 0.00 0.00 0.00 0.00 0.00 0.00 0.00 0.00 0.00 0.00 0.00 0.00 0.00 0.00 0.00 0.00 0.00 0.00 0.00 0.00 0.00
0.00 0.00 0.00 0.00 0.00 0.00 0.00 0.00 0.01 0.02 0.01 0.01 0.01 0.02 0.02 0.02 0.02 0.02 0.01 0.01 0.01 0.00 0.00 0.00 0.00 0.00 0.00 0.00 0.00 0.00 0.00 0.00 0.00 0.00 0.00 0.00 0.00 0.00 0.00 0.00 0.00 0.00 0.00
0.00 0.00 0.00 0.00 0.00 0.00 0.00 0.00 0.01 0.01 0.01 0.00 0.00 0.01 0.01 0.01 0.02 0.01 0.01 0.01 0.01 0.00 0.00 0.00 0.00 0.00 0.00 0.00 0.00 0.00 0.00 0.00 0.00 0.00 0.00 0.00 0.00 0.00 0.00 0.00 0.00 0.00 0.00
0.00 0.00 0.00 0.00 0.00 0.00 0.00 0.01 0.03 0.02 0.01 0.01 0.01 0.01 0.01 0.01 0.01 0.01 0.01 0.01 0.00 0.00 0.00 0.00 0.00 0.00 0.00 0.00 0.00 0.00 0.00 0.00 0.00 0.00 0.00 0.00 0.00 0.00 0.00 0.00 0.00 0.00 0.00
0.00 0.00 0.00 0.00 0.00 0.01 0.03 0.05 0.05 0.04 0.03 0.03 0.03 0.01 0.01 0.01 0.01 0.01 0.01 0.00 0.00 0.00 0.00 0.00 0.00 0.00 0.00 0.00 0.00 0.00 0.00 0.00 0.00 0.00 0.00 0.00 0.00 0.00 0.00 0.00 0.00 0.00 0.00
0.00 0.00 0.00 0.01 0.03 0.05 0.07 0.06 0.05 0.03 0.02 0.01 0.01 0.01 0.00 0.00 0.01 0.02 0.01 0.00 0.00 0.00 0.01 0.01 0.00 0.00 0.00 0.00 0.00 0.00 0.00 0.00 0.00 0.00 0.00 0.00 0.00 0.00 0.00 0.00 0.00 0.00 0.00
0.00 0.00 0.00 0.01 0.02 0.04 0.03 0.02 0.01 0.01 0.00 0.01 0.01 0.01 0.00 0.01 0.01 0.03 0.02 0.01 0.01 0.01 0.01 0.01 0.00 0.00 0.00 0.00 0.00 0.00 0.00 0.00 0.00 0.00 0.00 0.00 0.00 0.00 0.00 0.00 0.00 0.00 0.00
0.00 0.00 0.00 0.01 0.02 0.02 0.02 0.01 0.00 0.00 0.00 0.00 0.01 0.01 0.00 0.00 0.01 0.02 0.02 0.01 0.01 0.01 0.00 0.00 0.00 0.00 0.00 0.00 0.00 0.00 0.00 0.00 0.00 0.00 0.00 0.00 0.00 0.00 0.00 0.00 0.00 0.00 0.00
0.00 0.00 0.00 0.00 0.02 0.02 0.01 0.01 0.00 0.00 0.00 0.00 0.00 0.00 0.00 0.00 0.00 0.01 0.01 0.00 0.00 0.00 0.00 0.00 0.00 0.00 0.00 0.01 0.01 0.01 0.01 0.00 0.00 0.00 0.00 0.00 0.00 0.00 0.00 0.00 0.00 0.00 0.00
0.00 0.00 0.00 0.00 0.02 0.02 0.01 0.00 0.00 0.00 0.00 0.00 0.00 0.00 0.00 0.00 0.00 0.00 0.00 0.00 0.00 0.00 0.00 0.01 0.02 0.03 0.03 0.03 0.04 0.04 0.02 0.01 0.01 0.00 0.00 0.00 0.00 0.00 0.00 0.00 0.00 0.00 0.00
0.00 0.00 0.00 0.00 0.01 0.01 0.01 0.00 0.00 0.00 0.00 0.00 0.00 0.00 0.00 0.00 0.00 0.00 0.00 0.00 0.00 0.00 0.00 0.00 0.00 0.00 0.00 0.00 0.00 0.00 0.00 0.00 0.00 0.00 0.00 0.00 0.00 0.00 0.00 0.00 0.00 0.00 0.00
MSLP
1009.66 1009.70 1009.78 1009.90 1010.06 1010.26 1010.51 1010.82 1011.18 1011.59 1012.03 1012.47 1012.89 1013.26 1013.56 1013.78 1013.90 1013.94 1013.91 1013.83 1013.74 1013.65 1013.58 1013.55 1013.55 1013.57 1013.60 1013.62 1013.63 1013.61 1013.57 1013.50 1013.42 1013.32 1013.20 1013.07 1012.92 1012.73 1012.51 1012.27 1012.02 1011.78 1011.57
1009.74 1009.79 1009.87 1009.97 1010.08 1010.23 1010.43 1010.69 1011.02 1011.43 1011.91 1012.40 1012.89 1013.33 1013.68 1013.91 1014.03 1014.03 1013.94 1013.79 1013.62 1013.45 1013.32 1013.23 1013.18 1013.16 1013.14 1013.12 1013.08 1013.03 1012.97 1012.90 1012.84 1012.78 1012.74 1012.69 1012.61 1012.50 1012.34 1012.13 1011.87 1011.60 1011.34
1010.07 1010.12 1010.19 1010.26 1010.32 1010.40 1010.53 1010.73 1011.02 1011.41 1011.89 1012.42 1012.95 1013.44 1013.82 1014.08 1014.18 1014.15 1014.00 1013.79 1013.54 1013.31 1013.11 1012.95 1012.84 1012.75 1012.68 1012.60 1012.51 1012.42 1012.33 1012.26 1012.22 1012.22 1012.25 1012.28 1012.31 1012.29 1012.20 1012.03 1011.80 1011.51 1011.21
1010.64 1010.69 1010.73 1010.75 1010.75 1010.76 1010.80 1010.92 1011.15 1011.50 1011.96 1012.49 1013.03 1013.54 1013.95 1014.21 1014.31 1014.25 1014.07 1013.81 1013.50 1013.21 1012.95 1012.73 1012.55 1012.41 1012.27 1012.13 1011.99 1011.86 1011.74 1011.66 1011.64 1011.68 1011.77 1011.90 1012.01 1012.08 1012.07 1011.97 1011.76 1011.49 1011.17
1011.40 1011.42 1011.42 1011.39 1011.33 1011.25 1011.20 1011.23 1011.37 1011.65 1012.06 1012.56 1013.09 1013.60 1014.01 1014.27 1014.37 1014.31 1014.11 1013.82 1013.49 1013.15 1012.84 1012.58 1012.36 1012.16 1011.97 1011.78 1011.59 1011.41 1011.27 1011.18 1011.16 1011.23 1011.36 1011.54 1011.72 1011.87 1011.93 1011.88 1011.72 1011.46 1011.14
1012.24 1012.22 1012.18 1012.10 1011.97 1011.81 1011.67 1011.60 1011.65 1011.84 1012.17 1012.61 1013.10 1013.58 1013.99 1014.25 1014.35 1014.30 1014.10 1013.81 1013.48 1013.13 1012.81 1012.52 1012.26 1012.03 1011.80 1011.58 1011.35 1011.13 1010.95 1010.84 1010.81 1010.88 1011.03 1011.23 1011.45 1011.64 1011.74 1011.74 1011.62 1011.39 1011.09
1013.02 1012.96 1012.89 1012.77 1012.59 1012.36 1012.14 1011.98 1011.93 1012.03 1012.28 1012.64 1013.08 1013.51 1013.89 1014.15 1014.27 1014.23 1014.06 1013.79 1013.47 1013.14 1012.82 1012.53 1012.27 1012.01 1011.76 1011.51 1011.25 1011.01 1010.80 1010.66 1010.61 1010.65 1010.78 1010.97 1011.19 1011.38 1011.51 1011.53 1011.44 1011.25 1010.98
1013.62 1013.54 1013.45 1013.31 1013.10 1012.84 1012.56 1012.34 1012.21 1012.22 1012.38 1012.66 1013.03 1013.41 1013.76 1014.01 1014.13 1014.12 1013.99 1013.76 1013.48 1013.18 1012.88 1012.60 1012.34 1012.09 1011.83 1011.56 1011.29 1011.02 1010.79 1010.62 1010.53 1010.53 1010.62 1010.77 1010.96 1011.12 1011.24 1011.26 1011.19 1011.02 1010.78
1013.96 1013.88 1013.80 1013.66 1013.46 1013.19 1012.90 1012.64 1012.47 1012.41 1012.50 1012.70 1013.00 1013.32 1013.63 1013.87 1014.00 1014.01 1013.92 1013.74 1013.50 1013.24 1012.97 1012.71 1012.46 1012.21 1011.95 1011.68 1011.41 1011.13 1010.89 1010.69 1010.57 1010.52 1010.56 1010.65 1010.78 1010.90 1010.97 1010.98 1010.91 1010.76 1010.55
1014.02 1013.97 1013.92 1013.82 1013.66 1013.42 1013.16 1012.90 1012.71 1012.62 1012.65 1012.79 1013.02 1013.29 1013.55 1013.77 1013.90 1013.94 1013.87 1013.74 1013.54 1013.32 1013.08 1012.85 1012.61 1012.36 1012.11 1011.84 1011.57 1011.29 1011.05 1010.84 1010.69 1010.61 1010.59 1010.63 1010.69 1010.75 1010.77 1010.75 1010.66 1010.51 1010.32
1013.86 1013.85 1013.85 1013.82 1013.72 1013.55 1013.33 1013.12 1012.94 1012.84 1012.84 1012.94 1013.11 1013.33 1013.55 1013.74 1013.86 1013.91 1013.87 1013.77 1013.61 1013.42 1013.21 1012.99 1012.76 1012.52 1012.27 1012.01 1011.74 1011.48 1011.25 1011.04 1010.89 1010.78 1010.73 1010.72 1010.72 1010.72 1010.70 1010.63 1010.51 1010.35 1010.16
1013.60 1013.64 1013.70 1013.73 1013.70 1013.60 1013.46 1013.31 1013.17 1013.09 1013.08 1013.14 1013.27 1013.44 1013.62 1013.78 1013.88 1013.93 1013.91 1013.83 1013.71 1013.54 1013.35 1013.13 1012.91 1012.67 1012.43 1012.18 1011.93 1011.69 1011.47 1011.29 1011.15 1011.05 1010.98 1010.94 1010.90 1010.86 1010.78 1010.67 1010.52 1010.33 1010.12
1013.34 1013.43 1013.53 1013.62 1013.65 1013.63 1013.57 1013.48 1013.39 1013.34 1013.33 1013.38 1013.47 1013.60 1013.73 1013.86 1013.94 1013.99 1013.98 1013.92 1013.82 1013.67 1013.50 1013.30 1013.08 1012.84 1012.60 1012.36 1012.13 1011.92 1011.74 1011.59 1011.47 1011.39 1011.33 1011.28 1011.22 1011.14 1011.02 1010.87 1010.68 1010.46 1010.22
1013.19 1013.29 1013.42 1013.54 1013.62 1013.66 1013.66 1013.63 1013.60 1013.58 1013.58 1013.62 1013.68 1013.76 1013.86 1013.95 1014.02 1014.05 1014.06 1014.02 1013.94 1013.82 1013.67 1013.49 1013.28 1013.05 1012.82 1012.59 1012.38 1012.19 1012.04 1011.93 1011.85 1011.80 1011.75 1011.70 1011.64 1011.53 1011.39 1011.20 1010.96 1010.71 1010.43
1013.16 1013.26 1013.39 1013.51 1013.61 1013.68 1013.72 1013.75 1013.76 1013.77 1013.78 1013.81 1013.85 1013.90 1013.96 1014.02 1014.07 1014.11 1014.13 1014.12 1014.07 1013.99 1013.87 1013.72 1013.53 1013.32 1013.10 1012.88 1012.69 1012.52 1012.40 1012.31 1012.26 1012.24 1012.21 1012.17 1012.10 1011.99 1011.81 1011.59 1011.33 1011.03 1010.72
1013.24 1013.31 1013.40 1013.50 1013.60 1013.68 1013.75 1013.81 1013.86 1013.89 1013.92 1013.94 1013.97 1013.99 1014.02 1014.06 1014.10 1014.15 1014.19 1014.21 1014.21 1014.18 1014.11 1013.99 1013.83 1013.65 1013.44 1013.24 1013.06 1012.91 1012.80 1012.73 1012.70 1012.68 1012.67 1012.63 1012.56 1012.43 1012.24 1011.99 1011.70 1011.37 1011.03
1013.33 1013.37 1013.42 1013.48 1013.56 1013.64 1013.73 1013.82 1013.89 1013.95 1013.99 1014.02 1014.03 1014.04 1014.05 1014.08 1014.12 1014.17 1014.24 1014.31 1014.36 1014.38 1014.37 1014.30 1014.19 1014.04 1013.86 1013.67 1013.49 1013.34 1013.23 1013.16 1013.13 1013.11 1013.09 1013.04 1012.96 1012.81 1012.60 1012.34 1012.02 1011.67 1011.31
1013.37 1013.37 1013.38 1013.41 1013.47 1013.55 1013.65 1013.76 1013.86 1013.95 1014.01 1014.05 1014.07 1014.07 1014.07 1014.09 1014.14 1014.21 1014.31 1014.42 1014.53 1014.61 1014.66 1014.65 1014.58 1014.47 1014.31 1014.14 1013.97 1013.81 1013.69 1013.60 1013.55 1013.50 1013.46 1013.39 1013.28 1013.12 1012.89 1012.61 1012.28 1011.93 1011.56
1013.27 1013.25 1013.24 1013.26 1013.31 1013.41 1013.53 1013.67 1013.81 1013.93 1014.02 1014.08 1014.11 1014.12 1014.13 1014.15 1014.20 1014.29 1014.42 1014.57 1014.72 1014.86 1014.96 1015.00 1014.99 1014.91 1014.79 1014.63 1014.46 1014.30 1014.16 1014.04 1013.95 1013.88 1013.80 1013.69 1013.55 1013.36 1013.12 1012.82 1012.49 1012.14 1011.78
1013.02 1013.01 1013.01 1013.04 1013.11 1013.23 1013.39 1013.58 1013.76 1013.93 1014.06 1014.14 1014.19 1014.22 1014.24 1014.27 1014.33 1014.44 1014.58 1014.76 1014.95 1015.12 1015.27 1015.36 1015.38 1015.34 1015.24 1015.10 1014.94 1014.77 1014.62 1014.48 1014.36 1014.24 1014.12 1013.98 1013.81 1013.60 1013.34 1013.04 1012.71 1012.36 1012.02
1012.66 1012.68 1012.72 1012.78 1012.90 1013.07 1013.27 1013.51 1013.74 1013.95 1014.13 1014.25 1014.33 1014.39 1014.42 1014.47 1014.54 1014.66 1014.81 1015.00 1015.20 1015.40 1015.57 1015.69 1015.74 1015.73 1015.66 1015.55 1015.40 1015.24 1015.07 1014.92 1014.77 1014.63 1014.48 1014.31 1014.11 1013.87 1013.60 1013.29 1012.97 1012.64 1012.31
1012.23 1012.32 1012.41 1012.54 1012.71 1012.93 1013.19 1013.48 1013.76 1014.02 1014.23 1014.40 1014.52 1014.60 1014.66 1014.73 1014.81 1014.93 1015.08 1015.27 1015.47 1015.67 1015.85 1015.98 1016.06 1016.07 1016.03 1015.94 1015.82 1015.67 1015.52 1015.36 1015.21 1015.05 1014.88 1014.69 1014.47 1014.22 1013.94 1013.63 1013.32 1013.00 1012.69
1011.80 1011.97 1012.14 1012.34 1012.57 1012.84 1013.15 1013.47 1013.79 1014.09 1014.34 1014.55 1014.70 1014.82 1014.91 1015.00 1015.10 1015.22 1015.37 1015.55 1015.74 1015.93 1016.10 1016.23 1016.32 1016.35 1016.34 1016.28 1016.18 1016.07 1015.94 1015.80 1015.66 1015.50 1015.33 1015.13 1014.91 1014.66 1014.38 1014.08 1013.77 1013.46 1013.17
1011.41 1011.67 1011.92 1012.18 1012.47 1012.78 1013.12 1013.46 1013.80 1014.12 1014.41 1014.64 1014.83 1014.99 1015.11 1015.23 1015.35 1015.48 1015.63 1015.79 1015.97 1016.14 1016.30 1016.43 1016.52 1016.57 1016.57 1016.55 1016.49 1016.42 1016.32 1016.22 1016.10 1015.97 1015.81 1015.62 1015.41 1015.16 1014.89 1014.60 1014.30 1014.01 1013.73
1011.04 1011.38 1011.70 1012.02 1012.35 1012.69 1013.04 1013.39 1013.74 1014.06 1014.36 1014.62 1014.84 1015.04 1015.20 1015.35 1015.50 1015.65 1015.81 1015.97 1016.13 1016.29 1016.44 1016.56 1016.65 1016.71 1016.74 1016.75 1016.73 1016.70 1016.65 1016.58 1016.50 1016.40 1016.27 1016.10 1015.90 1015.68 1015.42 1015.15 1014.87 1014.59 1014.32
1010.64 1011.05 1011.44 1011.81 1012.16 1012.51 1012.85 1013.19 1013.53 1013.85 1014.15 1014.43 1014.69 1014.92 1015.13 1015.32 1015.51 1015.69 1015.87 1016.04 1016.21 1016.36 1016.50 1016.62 1016.71 1016.78 1016.83 1016.87 1016.89 1016.89 1016.89 1016.86 1016.82 1016.75 1016.65 1016.51 1016.34 1016.14 1015.91 1015.67 1015.41 1015.15 1014.90
Thickness
5798 5802 5804 5804 5801 5799 5797 5793 5788 5785 5782 5777 5772 5767 5765 5764 5763 5763 5762 5762 5761 5760 5759 5757 5755 5754 5752 5752 5752 5749 5747 5747 5747 5743 5743 5746 5749 5750 5752 5752 5752 5751 5751
5785 5789 5791 5794 5792 5790 5787 5783 5778 5775 5773 5770 5766 5763 5760 5757 5757 5756 5754 5752 5753 5753 5753 5751 5750 5749 5748 5748 5747 5746 5744 5744 5743 5738 5733 5730 5734 5742 5747 5748 5746 5746 5746
5779 5778 5778 5778 5778 5775 5773 5769 5766 5762 5761 5759 5756 5754 5752 5749 5746 5744 5743 5743 5744 5746 5746 5747 5747 5746 5744 5742 5742 5741 5739 5737 5738 5737 5730 5723 5721 5728 5737 5742 5741 5740 5739
5768 5765 5764 5763 5762 5761 5759 5756 5753 5751 5749 5748 5746 5743 5739 5735 5735 5734 5733 5734 5736 5737 5738 5740 5741 5741 5739 5737 5737 5737 5735 5732 5730 5731 5732 5730 5727 5721 5721 5728 5733 5734 5735
5747 5746 5747 5749 5750 5750 5748 5747 5745 5742 5740 5739 5737 5734 5730 5728 5727 5726 5725 5726 5727 5728 5729 5730 5732 5733 5732 5732 5731 5730 5728 5727 5726 5725 5725 5723 5721 5720 5714 5714 5719 5724 5729
5727 5727 5730 5731 5734 5736 5736 5736 5733 5731 5731 5730 5728 5725 5722 5720 5717 5716 5715 5717 5718 5720 5720 5721 5721 5722 5722 5723 5722 5721 5720 5719 5719 5719 5718 5717 5714 5712 5710 5709 5710 5711 5719
5711 5713 5714 5714 5715 5718 5720 5720 5719 5719 5719 5718 5716 5713 5712 5712 5710 5709 5708 5709 5709 5709 5710 5710 5709 5709 5710 5712 5711 5710 5709 5708 5708 5709 5710 5711 5710 5710 5707 5705 5704 5704 5709
5696 5697 5699 5702 5703 5704 5706 5707 5707 5707 5707 5706 5707 5706 5705 5704 5703 5701 5699 5698 5697 5698 5699 5699 5698 5698 5699 5701 5701 5699 5698 5698 5697 5699 5701 5702 5703 5702 5701 5700 5697 5694 5697
5681 5682 5684 5686 5692 5691 5691 5693 5694 5695 5697 5698 5699 5698 5696 5693 5690 5688 5687 5686 5687 5687 5688 5689 5689 5689 5690 5691 5691 5691 5690 5689 5689 5690 5692 5693 5693 5694 5695 5695 5693 5688 5685
5664 5668 5672 5676 5681 5681 5681 5681 5682 5682 5684 5686 5686 5685 5682 5679 5676 5675 5674 5675 5676 5677 5678 5679 5680 5681 5682 5682 5683 5683 5685 5683 5682 5683 5683 5683 5683 5683 5685 5686 5687 5685 5682
5652 5657 5661 5666 5667 5667 5668 5669 5671 5672 5671 5671 5672 5670 5668 5667 5665 5664 5664 5664 5666 5669 5669 5670 5671 5673 5674 5675 5675 5675 5677 5676 5674 5674 5673 5673 5674 5674 5676 5678 5678 5678 5678
5646 5648 5652 5654 5654 5655 5657 5658 5660 5661 5660 5661 5661 5660 5659 5657 5657 5657 5656 5657 5658 5661 5661 5661 5662 5664 5667 5668 5668 5668 5669 5668 5667 5665 5663 5663 5666 5666 5666 5667 5669 5670 5673
5638 5638 5638 5639 5640 5643 5646 5648 5649 5650 5651 5652 5651 5650 5649 5649 5649 5649 5649 5649 5650 5651 5652 5653 5654 5656 5659 5661 5662 5663 5663 5662 5660 5659 5656 5655 5656 5656 5656 5658 5661 5664 5668
5624 5627 5627 5629 5631 5633 5636 5638 5640 5641 5641 5641 5642 5641 5641 5641 5642 5641 5641 5641 5642 5642 5643 5643 5644 5646 5649 5651 5653 5654 5654 5653 5653 5651 5649 5648 5649 5650 5650 5653 5656 5659 5662
5611 5615 5617 5620 5623 5625 5627 5630 5632 5633 5633 5633 5634 5635 5635 5635 5635 5633 5632 5632 5632 5632 5632 5632 5634 5636 5637 5638 5640 5642 5642 5642 5642 5641 5640 5641 5642 5645 5646 5647 5649 5651 5652
5603 5606 5610 5612 5614 5616 5618 5620 5623 5625 5626 5626 5626 5627 5627 5627 5626 5625 5624 5623 5622 5621 5620 5620 5622 5623 5625 5627 5630 5630 5629 5629 5629 5628 5629 5631 5633 5636 5638 5640 5641 5642 5642
5602 5603 5604 5605 5606 5608 5610 5611 5613 5616 5617 5617 5617 5617 5616 5616 5615 5615 5615 5614 5612 5611 5610 5609 5609 5610 5613 5617 5618 5618 5617 5615 5614 5613 5615 5618 5620 5623 5626 5628 5630 5632 5634
5604 5603 5602 5601 5601 5602 5603 5604 5606 5607 5608 5608 5607 5606 5606 5604 5603 5603 5603 5603 5602 5600 5599 5598 5599 5600 5602 5605 5606 5605 5603 5600 5599 5599 5600 5601 5603 5606 5610 5612 5614 5617 5621
5603 5601 5600 5599 5599 5599 5600 5601 5601 5602 5601 5600 5598 5597 5596 5594 5593 5592 5592 5592 5591 5590 5589 5589 5590 5590 5590 5594 5595 5593 5590 5587 5586 5586 5587 5588 5588 5591 5595 5597 5599 5604 5608
5603 5601 5600 5600 5599 5599 5599 5598 5597 5595 5593 5591 5589 5587 5586 5585 5584 5584 5584 5583 5583 5581 5580 5578 5577 5577 5577 5580 5583 5583 5580 5577 5576 5576 5577 5577 5578 5580 5582 5582 5583 5585 5589
5604 5603 5601 5599 5599 5598 5596 5593 5590 5587 5585 5582 5580 5579 5578 5578 5578 5577 5578 5577 5575 5573 5571 5568 5564 5562 5563 5565 5568 5569 5568 5565 5564 5563 5563 5565 5567 5569 5570 5570 5569 5570 5575
5604 5603 5599 5596 5596 5595 5591 5587 5583 5581 5578 5575 5573 5572 5572 5573 5573 5573 5573 5572 5569 5565 5562 5559 5555 5553 5553 5554 5554 5554 5554 5554 5553 5551 5551 5553 5555 5557 5558 5558 5559 5561 5564
5607 5604 5599 5596 5594 5592 5589 5584 5580 5576 5573 5570 5568 5568 5568 5569 5570 5570 5569 5567 5564 5560 5556 5552 5548 5546 5546 5545 5545 5545 5545 5545 5543 5542 5544 5545 5546 5547 5547 5548 5549 5551 5550
5610 5606 5601 5596 5593 5591 5587 5584 5579 5575 5571 5567 5565 5564 5565 5565 5565 5565 5565 5563 5559 5554 5550 5546 5543 5541 5540 5539 5538 5537 5536 5535 5534 5533 5534 5536 5537 5538 5538 5537 5537 5538 5538
5611 5607 5602 5598 5594 5591 5587 5583 5579 5574 5569 5565 5563 5562 5561 5560 5559 5557 5556 5555 5553 5551 5545 5541 5538 5535 5532 5530 5529 5526 5523 5521 5519 5518 5519 5519 5520 5522 5524 5525 5526 5526 5527
5610 5605 5601 5597 5594 5590 5586 5582 5578 5573 5567 5563 5561 5559 5558 5556 5553 5551 5548 5548 5546 5544 5541 5537 5533 5529 5527 5524 5521 5518 5515 5512 5510 5507 5504 5503 5503 5505 5506 5508 5510 5511 5512